Time,TemperatureF,DewpointF,PressureIn,WindDirection,WindDirectionDegrees,WindSpeedMPH,WindSpeedGustMPH,Humidity,HourlyPrecipIn,Conditions,Clouds,dailyrainin,SoftwareType,DateUTC
2013-02-25 00:01:00,26.7,20.8,29.91,SSE,152,3.7,4.0,78,0.00,RA,SKC,0.00,WeatherDisplay:10.37,2013-02-25 06:01:00,
2013-02-25 00:06:00,26.7,20.8,29.91,SSE,152,3.3,4.0,78,0.00,RA,SKC,0.00,WeatherDisplay:10.37,2013-02-25 06:06:00,
2013-02-25 00:11:00,26.7,20.8,29.91,SSE,152,3.6,4.6,78,0.00,OVC,SKC,0.00,WeatherDisplay:10.37,2013-02-25 06:11:00,
2013-02-25 00:16:00,26.7,20.8,29.91,SSE,152,4.9,6.0,78,0.00,OVC,SKC,0.00,WeatherDisplay:10.37,2013-02-25 06:16:00,
2013-02-25 00:21:00,26.7,20.8,29.91,SSE,152,4.8,5.8,78,0.00,OVC,SKC,0.00,WeatherDisplay:10.37,2013-02-25 06:21:00,
2013-02-25 00:26:00,26.6,20.7,29.91,SSE,152,4.8,6.0,78,0.00,OVC,SKC,0.00,WeatherDisplay:10.37,2013-02-25 06:26:00,
2013-02-25 00:31:00,26.6,20.7,29.91,SSE,152,4.4,5.0,78,0.00,OVC,SKC,0.00,WeatherDisplay:10.37,2013-02-25 06:31:00,
2013-02-25 00:37:00,26.6,20.7,29.91,SSE,152,4.4,5.0,78,0.00,OVC,SKC,0.00,WeatherDisplay:10.37,2013-02-25 06:37:00,
2013-02-25 00:41:00,26.5,20.6,29.91,SSE,152,4.8,6.0,78,0.00,OVC,SKC,0.00,WeatherDisplay:10.37,2013-02-25 06:41:00,
2013-02-25 00:46:00,26.5,20.6,29.91,SSE,152,4.3,5.8,78,0.00,OVC,SKC,0.00,WeatherDisplay:10.37,2013-02-25 06:46:00,
2013-02-25 00:51:00,26.4,20.8,29.90,SSE,152,4.3,5.8,79,0.00,OVC,SKC,0.00,WeatherDisplay:10.37,2013-02-25 06:51:00,
2013-02-25 00:56:00,26.3,20.7,29.90,SSE,153,5.1,6.0,79,0.00,OVC,SKC,0.00,WeatherDisplay:10.37,2013-02-25 06:56:00,
2013-02-25 01:01:00,26.2,20.6,29.90,SSE,153,4.5,5.0,79,0.00,OVC,SKC,0.00,WeatherDisplay:10.37,2013-02-25 07:01:00,
2013-02-25 01:06:00,26.1,20.5,29.90,SSE,153,3.5,4.6,79,0.00,OVC,SKC,0.00,WeatherDisplay:10.37,2013-02-25 07:06:00,
2013-02-25 01:11:00,26.0,20.4,29.90,SSE,153,3.8,5.0,79,0.00,OVC,SKC,0.00,WeatherDisplay:10.37,2013-02-25 07:11:00,
2013-02-25 01:16:00,26.0,20.4,29.91,SSE,153,3.4,4.0,79,0.00,OVC,SKC,0.00,WeatherDisplay:10.37,2013-02-25 07:16:00,
2013-02-25 01:21:00,25.9,20.6,29.91,SSE,153,2.5,3.5,80,0.00,-SN,SKC,0.00,WeatherDisplay:10.37,2013-02-25 07:21:00,
2013-02-25 01:26:00,25.8,20.5,29.91,SSE,153,2.8,3.5,80,0.00,-SN,SKC,0.00,WeatherDisplay:10.37,2013-02-25 07:26:00,
2013-02-25 01:31:00,25.7,20.4,29.91,SSE,153,2.5,3.5,80,0.00,-SN,SKC,0.00,WeatherDisplay:10.37,2013-02-25 07:31:00,
2013-02-25 01:36:00,25.8,20.5,29.91,SSE,167,1.4,3.5,80,0.00,-SN,SKC,0.00,WeatherDisplay:10.37,2013-02-25 07:36:00,
2013-02-25 01:41:00,25.9,20.6,29.91,SSW,202,2.7,4.0,80,0.00,OVC,SKC,0.00,WeatherDisplay:10.37,2013-02-25 07:41:00,
2013-02-25 01:46:00,25.9,20.6,29.91,SSW,202,0.0,1.1,80,0.00,OVC,SKC,0.00,WeatherDisplay:10.37,2013-02-25 07:46:00,
2013-02-25 01:52:00,26.0,20.7,29.91,SSW,202,0.0,0.0,80,0.00,OVC,SKC,0.00,WeatherDisplay:10.37,2013-02-25 07:52:00,
2013-02-25 01:57:00,26.0,20.7,29.91,SSW,202,0.0,0.0,80,0.00,OVC,SKC,0.00,WeatherDisplay:10.37,2013-02-25 07:57:00,
2013-02-25 02:02:00,26.0,20.7,29.91,SSW,202,0.0,0.0,80,0.00,OVC,SKC,0.00,WeatherDisplay:10.37,2013-02-25 08:02:00,
2013-02-25 02:08:00,26.0,20.7,29.91,SSW,202,0.0,0.0,80,0.00,OVC,SKC,0.00,WeatherDisplay:10.37,2013-02-25 08:08:00,
2013-02-25 02:13:00,26.0,20.7,29.90,SSW,202,0.0,0.0,80,0.00,OVC,SKC,0.00,WeatherDisplay:10.37,2013-02-25 08:13:00,
2013-02-25 02:18:00,26.0,20.7,29.91,SSW,202,0.0,0.0,80,0.00,OVC,SKC,0.00,WeatherDisplay:10.37,2013-02-25 08:18:00,
2013-02-25 02:23:00,26.1,20.8,29.91,SSW,202,0.0,0.0,80,0.00,BKN,SKC,0.00,WeatherDisplay:10.37,2013-02-25 08:23:00,
2013-02-25 02:28:00,26.0,20.7,29.91,SSW,202,0.0,1.1,80,0.00,BKN,SKC,0.00,WeatherDisplay:10.37,2013-02-25 08:28:00,
2013-02-25 02:33:00,26.1,20.8,29.91,SSW,202,0.0,0.0,80,0.00,BKN,SKC,0.00,WeatherDisplay:10.37,2013-02-25 08:33:00,
2013-02-25 02:38:00,26.1,20.8,29.91,SSW,202,0.0,0.0,80,0.00,BKN,SKC,0.00,WeatherDisplay:10.37,2013-02-25 08:38:00,
2013-02-25 02:43:00,26.1,20.8,29.90,SSW,202,0.0,0.0,80,0.00,SCT,SKC,0.00,WeatherDisplay:10.37,2013-02-25 08:43:00,
2013-02-25 02:48:00,26.1,20.8,29.90,SSW,202,0.4,1.1,80,0.00,SCT,SKC,0.00,WeatherDisplay:10.37,2013-02-25 08:48:00,
2013-02-25 02:53:00,26.1,20.8,29.90,SSW,202,1.9,2.3,80,0.00,SCT,SKC,0.00,WeatherDisplay:10.37,2013-02-25 08:53:00,
2013-02-25 02:58:00,26.1,20.8,29.90,SSW,202,2.3,3.5,80,0.00,SCT,SKC,0.00,WeatherDisplay:10.37,2013-02-25 08:58:00,
2013-02-25 03:03:00,26.0,20.7,29.90,SSW,202,2.0,3.5,80,0.00,SCT,SKC,0.00,WeatherDisplay:10.37,2013-02-25 09:03:00,
2013-02-25 03:08:00,26.0,20.7,29.90,SSW,202,0.0,1.1,80,0.00,SCT,SKC,0.00,WeatherDisplay:10.37,2013-02-25 09:08:00,
2013-02-25 03:13:00,26.0,20.7,29.90,SSW,202,0.0,0.0,80,0.00,SCT,SKC,0.00,WeatherDisplay:10.37,2013-02-25 09:13:00,
2013-02-25 03:18:00,25.9,20.6,29.89,SSW,202,0.4,2.0,80,0.00,SCT,SKC,0.00,WeatherDisplay:10.37,2013-02-25 09:18:00,
2013-02-25 03:23:00,25.9,20.6,29.89,SSW,202,1.2,2.3,80,0.00,BKN,SKC,0.00,WeatherDisplay:10.37,2013-02-25 09:23:00,
2013-02-25 03:28:00,25.8,20.5,29.89,SSW,202,0.1,1.1,80,0.00,BKN,SKC,0.00,WeatherDisplay:10.37,2013-02-25 09:28:00,
2013-02-25 03:33:00,25.8,20.5,29.89,SSW,202,0.0,1.0,80,0.00,BKN,SKC,0.00,WeatherDisplay:10.37,2013-02-25 09:33:00,
2013-02-25 03:38:00,25.8,20.5,29.89,SSW,202,0.0,0.0,80,0.00,BKN,SKC,0.00,WeatherDisplay:10.37,2013-02-25 09:38:00,
2013-02-25 03:43:00,25.7,20.4,29.89,SSW,202,0.0,0.0,80,0.00,OVC,SKC,0.00,WeatherDisplay:10.37,2013-02-25 09:43:00,
2013-02-25 03:48:00,25.7,20.4,29.89,SSW,202,0.8,2.0,80,0.00,OVC,SKC,0.00,WeatherDisplay:10.37,2013-02-25 09:48:00,
2013-02-25 03:53:00,25.6,20.3,29.89,SSW,202,1.5,2.3,80,0.00,OVC,SKC,0.00,WeatherDisplay:10.37,2013-02-25 09:53:00,
2013-02-25 03:58:00,25.6,20.3,29.89,SSW,202,0.4,2.3,80,0.00,OVC,SKC,0.00,WeatherDisplay:10.37,2013-02-25 09:58:00,
2013-02-25 04:03:00,25.5,20.2,29.88,SSW,202,0.3,2.3,80,0.00,OVC,SKC,0.00,WeatherDisplay:10.37,2013-02-25 10:03:00,
2013-02-25 04:08:00,25.4,20.1,29.88,SSW,202,0.0,0.0,80,0.00,OVC,SKC,0.00,WeatherDisplay:10.37,2013-02-25 10:08:00,
2013-02-25 04:13:00,25.4,20.1,29.88,SSW,202,0.0,0.0,80,0.00,OVC,SKC,0.00,WeatherDisplay:10.37,2013-02-25 10:13:00,
2013-02-25 04:18:00,25.3,20.0,29.88,SSW,202,0.8,2.3,80,0.00,OVC,SKC,0.00,WeatherDisplay:10.37,2013-02-25 10:18:00,
2013-02-25 04:23:00,25.2,19.9,29.88,SSW,202,0.7,2.3,80,0.00,OVC,SKC,0.00,WeatherDisplay:10.37,2013-02-25 10:23:00,
2013-02-25 04:28:00,25.0,19.7,29.87,SSW,202,0.0,0.0,80,0.00,OVC,SKC,0.00,WeatherDisplay:10.37,2013-02-25 10:28:00,
2013-02-25 04:33:00,24.8,19.5,29.87,SSW,202,0.0,0.0,80,0.00,OVC,SKC,0.00,WeatherDisplay:10.37,2013-02-25 10:33:00,
2013-02-25 04:38:00,24.7,19.4,29.87,SSW,202,0.0,0.0,80,0.00,OVC,SKC,0.00,WeatherDisplay:10.37,2013-02-25 10:38:00,
2013-02-25 04:43:00,24.5,19.2,29.87,SSW,202,1.3,2.3,80,0.00,SCT,SKC,0.00,WeatherDisplay:10.37,2013-02-25 10:43:00,
2013-02-25 04:48:00,24.3,18.7,29.86,SSW,202,1.4,2.3,79,0.00,SCT,SKC,0.00,WeatherDisplay:10.37,2013-02-25 10:48:00,
2013-02-25 04:53:00,23.9,18.6,29.86,SSW,202,1.8,2.3,80,0.00,SCT,SKC,0.00,WeatherDisplay:10.37,2013-02-25 10:53:00,
2013-02-25 04:58:00,23.5,17.9,29.86,SSW,202,0.0,2.3,79,0.00,SCT,SKC,0.00,WeatherDisplay:10.37,2013-02-25 10:58:00,
2013-02-25 05:03:00,23.1,17.6,29.87,SSW,202,0.0,0.0,79,0.00,CLR,SKC,0.00,WeatherDisplay:10.37,2013-02-25 11:03:00,
2013-02-25 05:08:00,22.8,17.6,29.87,SSW,202,1.0,2.3,80,0.00,CLR,SKC,0.00,WeatherDisplay:10.37,2013-02-25 11:08:00,
2013-02-25 05:13:00,22.5,17.3,29.88,SSW,202,2.4,3.5,80,0.00,CLR,SKC,0.00,WeatherDisplay:10.37,2013-02-25 11:13:00,
2013-02-25 05:18:00,22.4,17.5,29.89,SSW,202,2.2,3.5,81,0.00,CLR,SKC,0.00,WeatherDisplay:10.37,2013-02-25 11:18:00,
2013-02-25 05:23:00,22.4,17.5,29.89,SSW,202,0.0,0.0,81,0.00,SCT,SKC,0.00,WeatherDisplay:10.37,2013-02-25 11:23:00,
2013-02-25 05:28:00,22.2,17.3,29.90,SSW,202,0.8,3.5,81,0.00,SCT,SKC,0.00,WeatherDisplay:10.37,2013-02-25 11:28:00,
2013-02-25 05:33:00,22.2,17.3,29.90,SSW,202,3.3,4.0,81,0.00,SCT,SKC,0.00,WeatherDisplay:10.37,2013-02-25 11:33:00,
2013-02-25 05:38:00,22.4,17.5,29.90,SSW,202,2.4,3.5,81,0.00,SCT,SKC,0.00,WeatherDisplay:10.37,2013-02-25 11:38:00,
2013-02-25 05:43:00,22.6,17.6,29.90,SSW,202,0.1,2.3,81,0.00,BKN,SKC,0.00,WeatherDisplay:10.37,2013-02-25 11:43:00,
2013-02-25 05:48:00,22.7,18.0,29.90,SSW,202,1.3,3.5,82,0.00,BKN,SKC,0.00,WeatherDisplay:10.37,2013-02-25 11:48:00,
2013-02-25 05:53:00,22.7,17.7,29.90,SSW,202,2.5,4.0,81,0.00,BKN,SKC,0.00,WeatherDisplay:10.37,2013-02-25 11:53:00,
2013-02-25 05:58:00,22.9,17.9,29.91,SSW,202,3.6,5.0,81,0.00,BKN,SKC,0.00,WeatherDisplay:10.37,2013-02-25 11:58:00,
2013-02-25 06:03:00,23.0,18.0,29.90,SSW,202,2.9,3.5,81,0.00,OVC,SKC,0.00,WeatherDisplay:10.37,2013-02-25 12:03:00,
2013-02-25 06:08:00,23.2,18.2,29.90,SSW,202,2.6,3.5,81,0.00,OVC,SKC,0.00,WeatherDisplay:10.37,2013-02-25 12:08:00,
2013-02-25 06:13:00,23.3,18.3,29.89,SSW,202,0.0,2.3,81,0.00,OVC,SKC,0.00,WeatherDisplay:10.37,2013-02-25 12:13:00,
2013-02-25 06:18:00,23.5,18.5,29.89,SSW,202,0.0,1.1,81,0.00,OVC,SKC,0.00,WeatherDisplay:10.37,2013-02-25 12:18:00,
2013-02-25 06:23:00,23.6,18.6,29.89,SSW,202,0.0,0.0,81,0.00,OVC,SKC,0.00,WeatherDisplay:10.37,2013-02-25 12:23:00,
2013-02-25 06:28:00,23.7,18.7,29.88,SSW,202,0.0,0.0,81,0.00,OVC,SKC,0.00,WeatherDisplay:10.37,2013-02-25 12:28:00,
2013-02-25 06:33:00,23.7,18.7,29.88,SSW,202,0.0,0.0,81,0.00,OVC,SKC,0.00,WeatherDisplay:10.37,2013-02-25 12:33:00,
2013-02-25 06:38:00,23.8,18.8,29.88,SSW,202,0.0,0.0,81,0.00,OVC,SKC,0.00,WeatherDisplay:10.37,2013-02-25 12:38:00,
2013-02-25 06:43:00,23.8,18.8,29.88,SSW,202,0.0,0.0,81,0.00,OVC,SKC,0.00,WeatherDisplay:10.37,2013-02-25 12:43:00,
2013-02-25 06:49:00,23.9,18.6,29.88,SSW,202,0.0,0.0,80,0.00,OVC,SKC,0.00,WeatherDisplay:10.37,2013-02-25 12:49:00,
2013-02-25 06:54:00,23.9,18.6,29.88,SSW,202,0.0,0.0,80,0.00,OVC,SKC,0.00,WeatherDisplay:10.37,2013-02-25 12:54:00,
2013-02-25 07:00:00,23.9,18.9,29.88,SSW,202,0.0,0.0,81,0.00,OVC,SKC,0.00,WeatherDisplay:10.37,2013-02-25 13:00:00,
2013-02-25 07:05:00,23.9,18.9,29.89,SSW,202,0.0,0.0,81,0.00,OVC,SKC,0.00,WeatherDisplay:10.37,2013-02-25 13:05:00,
2013-02-25 07:10:00,23.9,18.9,29.89,SSW,202,0.0,0.0,81,0.00,OVC,SKC,0.00,WeatherDisplay:10.37,2013-02-25 13:10:00,
2013-02-25 07:16:00,24.0,19.0,29.89,SSW,202,0.0,0.0,81,0.00,OVC,SKC,0.00,WeatherDisplay:10.37,2013-02-25 13:16:00,
2013-02-25 07:21:00,24.0,19.0,29.89,SSW,202,0.0,0.0,81,0.00,OVC,SKC,0.00,WeatherDisplay:10.37,2013-02-25 13:21:00,
2013-02-25 07:26:00,24.1,19.1,29.89,SSW,202,0.0,0.0,81,0.00,OVC,SKC,0.00,WeatherDisplay:10.37,2013-02-25 13:26:00,
2013-02-25 07:31:00,24.1,19.1,29.89,SSW,202,0.0,0.0,81,0.00,OVC,SKC,0.00,WeatherDisplay:10.37,2013-02-25 13:31:00,
2013-02-25 07:36:00,24.2,19.2,29.89,SSW,202,0.0,0.0,81,0.00,OVC,SKC,0.00,WeatherDisplay:10.37,2013-02-25 13:36:00,
2013-02-25 07:41:00,24.3,19.3,29.89,SSW,202,0.0,0.0,81,0.00,OVC,SKC,0.00,WeatherDisplay:10.37,2013-02-25 13:41:00,
2013-02-25 07:46:00,24.4,19.4,29.90,SSW,202,0.0,0.0,81,0.00,OVC,SKC,0.00,WeatherDisplay:10.37,2013-02-25 13:46:00,
2013-02-25 07:51:00,24.6,19.6,29.90,SSW,202,0.0,0.0,81,0.00,OVC,SKC,0.00,WeatherDisplay:10.37,2013-02-25 13:51:00,
2013-02-25 07:56:00,24.8,19.8,29.90,SSW,202,0.0,0.0,81,0.00,OVC,SKC,0.00,WeatherDisplay:10.37,2013-02-25 13:56:00,
2013-02-25 08:01:00,25.0,19.7,29.90,SSW,202,0.0,0.0,80,0.00,OVC,SKC,0.00,WeatherDisplay:10.37,2013-02-25 14:01:00,
2013-02-25 08:06:00,25.2,19.9,29.90,SSW,202,0.0,0.0,80,0.00,OVC,SKC,0.00,WeatherDisplay:10.37,2013-02-25 14:06:00,
2013-02-25 08:11:00,25.4,20.1,29.91,SSW,202,0.0,0.0,80,0.00,OVC,SKC,0.00,WeatherDisplay:10.37,2013-02-25 14:11:00,
2013-02-25 08:16:00,25.6,20.3,29.91,SSW,202,0.0,0.0,80,0.00,OVC,SKC,0.00,WeatherDisplay:10.37,2013-02-25 14:16:00,
2013-02-25 08:21:00,25.8,20.5,29.90,SSW,202,0.0,0.0,80,0.00,OVC,SKC,0.00,WeatherDisplay:10.37,2013-02-25 14:21:00,
2013-02-25 08:27:00,26.0,20.4,29.90,SSW,202,0.0,0.0,79,0.00,OVC,SKC,0.00,WeatherDisplay:10.37,2013-02-25 14:27:00,
2013-02-25 08:32:00,26.2,20.6,29.90,SSW,202,0.0,0.0,79,0.00,OVC,SKC,0.00,WeatherDisplay:10.37,2013-02-25 14:32:00,
2013-02-25 08:37:00,26.3,20.7,29.90,SSW,202,0.0,0.0,79,0.00,OVC,SKC,0.00,WeatherDisplay:10.37,2013-02-25 14:37:00,
2013-02-25 08:42:00,26.3,20.7,29.90,SSW,202,0.0,0.0,79,0.00,OVC,SKC,0.00,WeatherDisplay:10.37,2013-02-25 14:42:00,
2013-02-25 08:47:00,26.5,20.9,29.90,SSW,202,0.0,0.0,79,0.00,OVC,SKC,0.00,WeatherDisplay:10.37,2013-02-25 14:47:00,
2013-02-25 08:52:00,26.7,21.1,29.90,SSW,202,0.0,1.1,79,0.00,OVC,SKC,0.00,WeatherDisplay:10.37,2013-02-25 14:52:00,
2013-02-25 08:57:00,27.0,21.4,29.90,SSW,202,0.0,0.0,79,0.00,OVC,SKC,0.00,WeatherDisplay:10.37,2013-02-25 14:57:00,
2013-02-25 09:02:00,27.3,21.3,29.90,SSW,202,0.0,0.0,78,0.00,BKN,SKC,0.00,WeatherDisplay:10.37,2013-02-25 15:02:00,
2013-02-25 09:07:00,27.5,21.5,29.90,SSW,202,0.0,2.3,78,0.00,BKN,SKC,0.00,WeatherDisplay:10.37,2013-02-25 15:07:00,
2013-02-25 09:12:00,27.6,21.6,29.89,SSW,202,0.1,1.1,78,0.00,BKN,SKC,0.00,WeatherDisplay:10.37,2013-02-25 15:12:00,
2013-02-25 09:17:00,27.6,21.6,29.89,SSW,202,0.0,2.3,78,0.00,BKN,SKC,0.00,WeatherDisplay:10.37,2013-02-25 15:17:00,
2013-02-25 09:22:00,27.7,21.7,29.90,SSW,202,0.0,0.0,78,0.00,BKN,SKC,0.00,WeatherDisplay:10.37,2013-02-25 15:22:00,
2013-02-25 09:27:00,28.0,22.0,29.90,SSW,202,0.0,2.3,78,0.00,BKN,SKC,0.00,WeatherDisplay:10.37,2013-02-25 15:27:00,
2013-02-25 09:32:00,28.2,22.2,29.90,SSW,202,0.0,0.0,78,0.00,BKN,SKC,0.00,WeatherDisplay:10.37,2013-02-25 15:32:00,
2013-02-25 09:37:00,28.5,22.2,29.89,SSW,202,0.0,1.1,77,0.00,BKN,SKC,0.00,WeatherDisplay:10.37,2013-02-25 15:37:00,
2013-02-25 09:42:00,28.5,22.2,29.89,SSW,202,0.0,1.1,77,0.00,BKN,SKC,0.00,WeatherDisplay:10.37,2013-02-25 15:42:00,
2013-02-25 09:47:00,28.5,22.2,29.90,SSW,202,0.0,0.0,77,0.00,BKN,SKC,0.00,WeatherDisplay:10.37,2013-02-25 15:47:00,
2013-02-25 09:52:00,28.4,22.1,29.89,SSW,202,0.0,0.0,77,0.00,BKN,SKC,0.00,WeatherDisplay:10.37,2013-02-25 15:52:00,
2013-02-25 09:57:00,28.6,22.3,29.89,SSW,202,0.0,0.0,77,0.00,BKN,SKC,0.00,WeatherDisplay:10.37,2013-02-25 15:57:00,
2013-02-25 10:02:00,29.0,22.7,29.90,SSW,202,0.0,0.0,77,0.00,BKN,SKC,0.00,WeatherDisplay:10.37,2013-02-25 16:02:00,
2013-02-25 10:07:00,29.2,22.6,29.90,SSW,202,0.0,1.1,76,0.00,BKN,SKC,0.00,WeatherDisplay:10.37,2013-02-25 16:07:00,
2013-02-25 10:12:00,29.3,23.0,29.90,SSW,202,0.3,2.0,77,0.00,BKN,SKC,0.00,WeatherDisplay:10.37,2013-02-25 16:12:00,
2013-02-25 10:17:00,29.4,22.8,29.90,SSW,202,0.0,0.0,76,0.00,BKN,SKC,0.00,WeatherDisplay:10.37,2013-02-25 16:17:00,
2013-02-25 10:22:00,29.3,22.7,29.90,SSW,202,1.6,3.5,76,0.00,SCT,SKC,0.00,WeatherDisplay:10.37,2013-02-25 16:22:00,
2013-02-25 10:27:00,29.2,22.6,29.90,SSW,202,0.2,2.3,76,0.00,SCT,SKC,0.00,WeatherDisplay:10.37,2013-02-25 16:27:00,
2013-02-25 10:32:00,29.3,22.7,29.91,SSW,202,1.3,2.3,76,0.00,SCT,SKC,0.00,WeatherDisplay:10.37,2013-02-25 16:32:00,
2013-02-25 10:37:00,29.4,22.8,29.90,SSW,202,0.2,2.3,76,0.00,SCT,SKC,0.00,WeatherDisplay:10.37,2013-02-25 16:37:00,
2013-02-25 10:42:00,29.6,23.0,29.91,SSW,202,0.9,2.0,76,0.00,SCT,SKC,0.00,WeatherDisplay:10.37,2013-02-25 16:42:00,
2013-02-25 10:47:00,29.7,23.1,29.90,SSW,202,1.3,2.3,76,0.00,SCT,SKC,0.00,WeatherDisplay:10.37,2013-02-25 16:47:00,
2013-02-25 10:52:00,29.8,23.2,29.90,SSW,202,1.0,2.3,76,0.00,SCT,SKC,0.00,WeatherDisplay:10.37,2013-02-25 16:52:00,
2013-02-25 10:57:00,29.8,23.5,29.90,SSW,202,1.4,2.3,77,0.00,SCT,SKC,0.00,WeatherDisplay:10.37,2013-02-25 16:57:00,
2013-02-25 11:02:00,29.9,23.6,29.90,SSW,202,1.1,3.5,77,0.01,RA,SKC,0.01,WeatherDisplay:10.37,2013-02-25 17:02:00,
2013-02-25 11:07:00,29.8,23.5,29.89,SSW,202,2.1,3.5,77,0.01,RA,SKC,0.01,WeatherDisplay:10.37,2013-02-25 17:07:00,
2013-02-25 11:12:00,29.9,23.6,29.89,SSW,202,0.4,3.5,77,0.01,SCT,SKC,0.01,WeatherDisplay:10.37,2013-02-25 17:12:00,
2013-02-25 11:17:00,30.2,23.9,29.89,SW,234,3.6,5.0,77,0.01,SCT,SKC,0.01,WeatherDisplay:10.37,2013-02-25 17:17:00,
2013-02-25 11:22:00,30.3,24.0,29.89,SW,235,0.9,3.5,77,0.01,SCT,SKC,0.01,WeatherDisplay:10.37,2013-02-25 17:22:00,
2013-02-25 11:27:00,30.5,23.8,29.90,SW,235,1.6,3.5,76,0.01,SCT,SKC,0.01,WeatherDisplay:10.37,2013-02-25 17:27:00,
2013-02-25 11:32:00,30.6,23.9,29.90,SW,235,0.6,3.5,76,0.01,SCT,SKC,0.01,WeatherDisplay:10.37,2013-02-25 17:32:00,
2013-02-25 11:37:00,30.8,24.1,29.90,SW,235,1.7,3.0,76,0.01,SCT,SKC,0.01,WeatherDisplay:10.37,2013-02-25 17:37:00,
2013-02-25 11:42:00,30.8,24.1,29.89,SW,235,1.0,2.3,76,0.01,,SKC,0.01,WeatherDisplay:10.37,2013-02-25 17:42:00,
2013-02-25 11:47:00,30.9,24.2,29.89,SW,235,1.1,2.3,76,0.02,RA,SKC,0.02,WeatherDisplay:10.37,2013-02-25 17:47:00,
2013-02-25 11:52:00,31.0,24.3,29.89,SW,235,0.7,2.3,76,0.02,RA,SKC,0.02,WeatherDisplay:10.37,2013-02-25 17:52:00,
2013-02-25 11:57:00,31.1,24.4,29.88,SW,235,1.2,2.3,76,0.02,,SKC,0.02,WeatherDisplay:10.37,2013-02-25 17:57:00,
2013-02-25 12:02:00,31.2,24.2,29.89,SW,235,0.2,2.3,75,0.01,,SKC,0.02,WeatherDisplay:10.37,2013-02-25 18:02:00,
2013-02-25 12:07:00,31.5,24.5,29.89,SW,235,0.0,1.1,75,0.01,,SKC,0.02,WeatherDisplay:10.37,2013-02-25 18:07:00,
2013-02-25 12:12:00,31.4,24.4,29.88,SW,235,0.8,2.3,75,0.01,,SKC,0.02,WeatherDisplay:10.37,2013-02-25 18:12:00,
2013-02-25 12:17:00,31.4,24.4,29.88,SW,235,1.0,2.3,75,0.01,,SKC,0.03,WeatherDisplay:10.37,2013-02-25 18:17:00,
2013-02-25 12:22:00,31.6,24.6,29.88,SW,235,0.0,1.1,75,0.02,RA,SKC,0.03,WeatherDisplay:10.37,2013-02-25 18:22:00,
2013-02-25 12:27:00,32.1,25.1,29.88,SW,235,0.0,0.0,75,0.02,RA,SKC,0.03,WeatherDisplay:10.37,2013-02-25 18:27:00,
2013-02-25 12:32:00,32.2,25.2,29.88,SW,235,0.0,1.1,75,0.02,SCT,SKC,0.03,WeatherDisplay:10.37,2013-02-25 18:32:00,
2013-02-25 12:37:00,31.8,24.8,29.88,SW,235,2.1,3.5,75,0.02,SCT,SKC,0.03,WeatherDisplay:10.37,2013-02-25 18:37:00,
2013-02-25 12:42:00,31.5,24.5,29.88,SW,235,1.5,3.5,75,0.02,,SKC,0.03,WeatherDisplay:10.37,2013-02-25 18:42:00,
2013-02-25 12:47:00,31.3,24.3,29.88,SW,235,1.3,3.0,75,0.01,,SKC,0.03,WeatherDisplay:10.37,2013-02-25 18:47:00,
2013-02-25 12:52:00,31.1,24.1,29.88,SW,235,0.0,2.3,75,0.01,,SKC,0.03,WeatherDisplay:10.37,2013-02-25 18:52:00,
2013-02-25 12:57:00,31.4,24.4,29.87,SW,235,0.1,1.1,75,0.01,,SKC,0.03,WeatherDisplay:10.37,2013-02-25 18:57:00,
2013-02-25 13:02:00,31.9,24.9,29.87,SW,235,0.0,0.0,75,0.01,SCT,SKC,0.03,WeatherDisplay:10.37,2013-02-25 19:02:00,
2013-02-25 13:07:00,32.3,25.3,29.87,SW,235,0.0,0.0,75,0.01,SCT,SKC,0.03,WeatherDisplay:10.37,2013-02-25 19:07:00,
2013-02-25 13:12:00,32.7,25.6,29.87,SW,235,0.5,2.0,75,0.02,RA,SKC,0.04,WeatherDisplay:10.37,2013-02-25 19:12:00,
2013-02-25 13:17:00,32.5,25.5,29.87,WSW,252,2.5,4.0,75,0.02,RA,SKC,0.04,WeatherDisplay:10.37,2013-02-25 19:17:00,
2013-02-25 13:22:00,31.8,24.8,29.87,WSW,252,0.2,2.3,75,0.01,SCT,SKC,0.04,WeatherDisplay:10.37,2013-02-25 19:22:00,
2013-02-25 13:27:00,31.7,24.7,29.87,WSW,252,0.8,2.3,75,0.01,SCT,SKC,0.04,WeatherDisplay:10.37,2013-02-25 19:27:00,
2013-02-25 13:32:00,31.7,24.7,29.86,WSW,252,0.4,2.0,75,0.01,SCT,SKC,0.04,WeatherDisplay:10.37,2013-02-25 19:32:00,
2013-02-25 13:37:00,31.6,24.6,29.86,WSW,252,0.4,2.3,75,0.01,SCT,SKC,0.04,WeatherDisplay:10.37,2013-02-25 19:37:00,
2013-02-25 13:42:00,31.5,24.5,29.86,WSW,252,1.8,3.5,75,0.01,SCT,SKC,0.04,WeatherDisplay:10.37,2013-02-25 19:42:00,
2013-02-25 13:47:00,31.4,24.4,29.85,WSW,252,2.1,3.5,75,0.01,SCT,SKC,0.04,WeatherDisplay:10.37,2013-02-25 19:47:00,
2013-02-25 13:52:00,31.3,24.3,29.85,WSW,252,0.0,2.3,75,0.01,SCT,SKC,0.04,WeatherDisplay:10.37,2013-02-25 19:52:00,
2013-02-25 13:57:00,31.4,24.4,29.85,WSW,252,0.5,2.3,75,0.01,SCT,SKC,0.04,WeatherDisplay:10.37,2013-02-25 19:57:00,
2013-02-25 14:02:00,31.7,24.7,29.85,WSW,252,0.8,2.0,75,0.01,SCT,SKC,0.04,WeatherDisplay:10.37,2013-02-25 20:02:00,
2013-02-25 14:07:00,32.0,25.0,29.85,WSW,252,0.5,2.0,75,0.01,SCT,SKC,0.04,WeatherDisplay:10.37,2013-02-25 20:07:00,
2013-02-25 14:12:00,32.4,25.4,29.85,WSW,252,0.3,2.3,75,0.00,SCT,SKC,0.04,WeatherDisplay:10.37,2013-02-25 20:12:00,
2013-02-25 14:17:00,32.7,25.6,29.85,WSW,252,0.2,1.1,75,0.01,RA,SKC,0.05,WeatherDisplay:10.37,2013-02-25 20:17:00,
2013-02-25 14:22:00,33.2,26.1,29.85,WSW,252,1.0,2.0,75,0.01,RA,SKC,0.05,WeatherDisplay:10.37,2013-02-25 20:22:00,
2013-02-25 14:27:00,33.1,25.7,29.85,West,261,1.7,3.5,74,0.01,CLR,SKC,0.05,WeatherDisplay:10.37,2013-02-25 20:27:00,
2013-02-25 14:32:00,33.4,26.3,29.85,West,261,0.3,1.1,75,0.01,CLR,SKC,0.05,WeatherDisplay:10.37,2013-02-25 20:32:00,
2013-02-25 14:37:00,33.6,26.5,29.85,West,260,3.0,4.0,75,0.01,CLR,SKC,0.05,WeatherDisplay:10.37,2013-02-25 20:37:00,
2013-02-25 14:42:00,33.1,25.7,29.85,West,260,2.1,3.0,74,0.01,SCT,SKC,0.05,WeatherDisplay:10.37,2013-02-25 20:42:00,
2013-02-25 14:47:00,32.9,25.5,29.85,West,260,0.0,1.0,74,0.01,SCT,SKC,0.05,WeatherDisplay:10.37,2013-02-25 20:47:00,
2013-02-25 14:52:00,32.9,25.5,29.85,West,260,0.1,1.1,74,0.01,SCT,SKC,0.05,WeatherDisplay:10.37,2013-02-25 20:52:00,
2013-02-25 14:57:00,32.8,25.7,29.85,West,260,0.0,0.0,75,0.01,SCT,SKC,0.05,WeatherDisplay:10.37,2013-02-25 20:57:00,
2013-02-25 15:02:00,32.7,25.3,29.85,West,260,1.1,2.0,74,0.01,SCT,SKC,0.05,WeatherDisplay:10.37,2013-02-25 21:02:00,
2013-02-25 15:07:00,32.6,25.2,29.85,West,260,0.0,0.0,74,0.01,SCT,SKC,0.05,WeatherDisplay:10.37,2013-02-25 21:07:00,
2013-02-25 15:12:00,32.8,25.4,29.85,West,260,0.4,1.1,74,0.01,SCT,SKC,0.05,WeatherDisplay:10.37,2013-02-25 21:12:00,
2013-02-25 15:17:00,32.8,25.7,29.85,West,260,1.0,3.5,75,0.00,SCT,SKC,0.05,WeatherDisplay:10.37,2013-02-25 21:17:00,
2013-02-25 15:22:00,32.6,25.2,29.85,West,260,1.2,2.3,74,0.00,SCT,SKC,0.05,WeatherDisplay:10.37,2013-02-25 21:22:00,
2013-02-25 15:27:00,32.7,25.6,29.85,West,271,0.2,2.3,75,0.00,SCT,SKC,0.05,WeatherDisplay:10.37,2013-02-25 21:27:00,
2013-02-25 15:32:00,32.9,25.5,29.85,West,271,0.0,1.1,74,0.00,SCT,SKC,0.05,WeatherDisplay:10.37,2013-02-25 21:32:00,
2013-02-25 15:37:00,32.7,25.3,29.85,West,271,0.7,2.0,74,0.00,SCT,SKC,0.05,WeatherDisplay:10.37,2013-02-25 21:37:00,
2013-02-25 15:42:00,32.6,25.6,29.85,West,271,0.9,2.3,75,0.00,SCT,SKC,0.05,WeatherDisplay:10.37,2013-02-25 21:42:00,
2013-02-25 15:47:00,32.7,25.6,29.85,West,271,0.0,0.0,75,0.00,SCT,SKC,0.05,WeatherDisplay:10.37,2013-02-25 21:47:00,
2013-02-25 15:52:00,32.6,25.2,29.85,West,271,0.0,0.0,74,0.00,SCT,SKC,0.05,WeatherDisplay:10.37,2013-02-25 21:52:00,
2013-02-25 15:57:00,32.6,25.2,29.85,West,271,0.0,0.0,74,0.00,SCT,SKC,0.05,WeatherDisplay:10.37,2013-02-25 21:57:00,
2013-02-25 16:02:00,32.6,25.6,29.85,West,271,0.2,1.1,75,0.00,BKN,SKC,0.05,WeatherDisplay:10.37,2013-02-25 22:02:00,
2013-02-25 16:07:00,32.4,25.0,29.85,West,271,0.0,0.0,74,0.00,BKN,SKC,0.05,WeatherDisplay:10.37,2013-02-25 22:07:00,
2013-02-25 16:12:00,32.1,24.7,29.85,West,271,0.0,0.0,74,0.00,BKN,SKC,0.05,WeatherDisplay:10.37,2013-02-25 22:12:00,
2013-02-25 16:17:00,32.0,25.0,29.85,West,271,0.0,0.0,75,0.00,BKN,SKC,0.05,WeatherDisplay:10.37,2013-02-25 22:17:00,
2013-02-25 16:22:00,32.1,25.1,29.85,West,271,0.0,0.0,75,0.00,BKN,SKC,0.05,WeatherDisplay:10.37,2013-02-25 22:22:00,
2013-02-25 16:27:00,32.1,25.1,29.84,West,271,0.0,0.0,75,0.00,BKN,SKC,0.05,WeatherDisplay:10.37,2013-02-25 22:27:00,
2013-02-25 16:32:00,31.8,24.8,29.84,West,271,0.6,2.0,75,0.00,BKN,SKC,0.05,WeatherDisplay:10.37,2013-02-25 22:32:00,
2013-02-25 16:37:00,31.7,24.7,29.84,West,271,0.6,1.1,75,0.00,BKN,SKC,0.05,WeatherDisplay:10.37,2013-02-25 22:37:00,
2013-02-25 16:42:00,31.3,24.3,29.84,West,271,0.2,2.3,75,0.00,BKN,SKC,0.05,WeatherDisplay:10.37,2013-02-25 22:42:00,
2013-02-25 16:47:00,31.0,24.0,29.84,West,271,0.4,2.3,75,0.00,BKN,SKC,0.05,WeatherDisplay:10.37,2013-02-25 22:47:00,
2013-02-25 16:52:00,30.8,24.1,29.84,West,271,0.0,0.0,76,0.00,BKN,SKC,0.05,WeatherDisplay:10.37,2013-02-25 22:52:00,
2013-02-25 16:57:00,30.7,24.0,29.84,West,271,1.2,2.3,76,0.00,BKN,SKC,0.05,WeatherDisplay:10.37,2013-02-25 22:57:00,
2013-02-25 17:02:00,30.6,23.9,29.84,West,271,1.5,2.3,76,0.00,BKN,SKC,0.05,WeatherDisplay:10.37,2013-02-25 23:02:00,
2013-02-25 17:07:00,30.5,23.8,29.84,West,271,1.7,2.3,76,0.00,BKN,SKC,0.05,WeatherDisplay:10.37,2013-02-25 23:07:00,
2013-02-25 17:12:00,30.4,23.7,29.84,West,271,0.0,1.1,76,0.00,BKN,SKC,0.05,WeatherDisplay:10.37,2013-02-25 23:12:00,
2013-02-25 17:17:00,30.4,23.7,29.84,West,271,0.1,1.1,76,0.00,BKN,SKC,0.05,WeatherDisplay:10.37,2013-02-25 23:17:00,
2013-02-25 17:22:00,30.4,23.7,29.84,West,271,0.9,2.0,76,0.00,BKN,SKC,0.05,WeatherDisplay:10.37,2013-02-25 23:22:00,
2013-02-25 17:27:00,30.3,24.0,29.84,West,271,1.9,2.3,77,0.00,BKN,SKC,0.05,WeatherDisplay:10.37,2013-02-25 23:27:00,
2013-02-25 17:32:00,30.2,23.9,29.84,West,271,1.0,2.0,77,0.00,BKN,SKC,0.05,WeatherDisplay:10.37,2013-02-25 23:32:00,
2013-02-25 17:37:00,30.2,23.9,29.84,West,271,0.7,2.3,77,0.00,BKN,SKC,0.05,WeatherDisplay:10.37,2013-02-25 23:37:00,
2013-02-25 17:42:00,30.2,23.9,29.84,West,271,0.2,2.3,77,0.00,BKN,SKC,0.05,WeatherDisplay:10.37,2013-02-25 23:42:00,
2013-02-25 17:47:00,30.2,23.9,29.83,West,271,0.0,0.0,77,0.00,BKN,SKC,0.05,WeatherDisplay:10.37,2013-02-25 23:47:00,
2013-02-25 17:52:00,30.2,23.9,29.84,West,271,0.0,1.1,77,0.00,BKN,SKC,0.05,WeatherDisplay:10.37,2013-02-25 23:52:00,
2013-02-25 17:57:00,30.1,23.8,29.84,West,271,0.0,0.0,77,0.00,BKN,SKC,0.05,WeatherDisplay:10.37,2013-02-25 23:57:00,
2013-02-25 18:02:00,30.1,23.8,29.84,West,271,0.0,0.0,77,0.00,BKN,SKC,0.05,WeatherDisplay:10.37,2013-02-26 00:02:00,
2013-02-25 18:07:00,30.1,23.8,29.84,West,271,0.0,0.0,77,0.00,BKN,SKC,0.05,WeatherDisplay:10.37,2013-02-26 00:07:00,
2013-02-25 18:12:00,30.0,23.7,29.85,West,271,0.0,0.0,77,0.00,BKN,SKC,0.05,WeatherDisplay:10.37,2013-02-26 00:12:00,
2013-02-25 18:17:00,30.1,23.8,29.84,West,271,0.0,1.1,77,0.00,BKN,SKC,0.05,WeatherDisplay:10.37,2013-02-26 00:17:00,
2013-02-25 18:22:00,30.0,23.7,29.84,West,271,0.0,0.0,77,0.00,BKN,SKC,0.05,WeatherDisplay:10.37,2013-02-26 00:22:00,
2013-02-25 18:27:00,30.0,23.7,29.84,West,271,0.0,1.1,77,0.00,BKN,SKC,0.05,WeatherDisplay:10.37,2013-02-26 00:27:00,
2013-02-25 18:32:00,29.9,23.6,29.84,West,271,0.1,2.0,77,0.00,BKN,SKC,0.05,WeatherDisplay:10.37,2013-02-26 00:32:00,
2013-02-25 18:37:00,29.9,23.9,29.84,West,271,0.3,2.0,78,0.00,BKN,SKC,0.05,WeatherDisplay:10.37,2013-02-26 00:37:00,
2013-02-25 18:42:00,29.8,23.8,29.84,West,271,0.8,2.3,78,0.00,BKN,SKC,0.05,WeatherDisplay:10.37,2013-02-26 00:42:00,
2013-02-25 18:47:00,29.8,23.8,29.84,West,271,1.3,3.5,78,0.00,BKN,SKC,0.05,WeatherDisplay:10.37,2013-02-26 00:47:00,
2013-02-25 18:52:00,29.7,23.7,29.84,West,271,1.8,3.0,78,0.00,BKN,SKC,0.05,WeatherDisplay:10.37,2013-02-26 00:52:00,
2013-02-25 18:57:00,29.7,23.7,29.84,West,271,0.3,2.3,78,0.00,BKN,SKC,0.05,WeatherDisplay:10.37,2013-02-26 00:57:00,
2013-02-25 19:02:00,29.6,23.6,29.84,West,271,1.7,3.5,78,0.00,BKN,SKC,0.05,WeatherDisplay:10.37,2013-02-26 01:02:00,
2013-02-25 19:07:00,29.6,23.6,29.84,West,271,0.6,2.3,78,0.00,BKN,SKC,0.05,WeatherDisplay:10.37,2013-02-26 01:07:00,
2013-02-25 19:12:00,29.5,23.8,29.84,West,271,1.8,2.3,79,0.00,BKN,SKC,0.05,WeatherDisplay:10.37,2013-02-26 01:12:00,
2013-02-25 19:17:00,29.5,23.8,29.84,West,271,1.5,2.3,79,0.00,BKN,SKC,0.05,WeatherDisplay:10.37,2013-02-26 01:17:00,
2013-02-25 19:22:00,29.4,23.7,29.84,West,271,0.6,2.3,79,0.00,BKN,SKC,0.05,WeatherDisplay:10.37,2013-02-26 01:22:00,
2013-02-25 19:27:00,29.4,23.7,29.84,West,271,1.4,3.5,79,0.00,BKN,SKC,0.05,WeatherDisplay:10.37,2013-02-26 01:27:00,
2013-02-25 19:32:00,29.4,23.7,29.84,West,271,0.5,2.0,79,0.00,BKN,SKC,0.05,WeatherDisplay:10.37,2013-02-26 01:32:00,
2013-02-25 19:37:00,29.4,23.7,29.84,West,271,1.0,2.0,79,0.00,BKN,SKC,0.05,WeatherDisplay:10.37,2013-02-26 01:37:00,
2013-02-25 19:42:00,29.3,23.6,29.84,West,271,1.6,3.5,79,0.00,BKN,SKC,0.05,WeatherDisplay:10.37,2013-02-26 01:42:00,
2013-02-25 19:48:00,29.3,23.6,29.84,West,271,1.8,3.0,79,0.00,BKN,SKC,0.05,WeatherDisplay:10.37,2013-02-26 01:48:00,
2013-02-25 19:53:00,29.3,23.6,29.84,WNW,298,3.2,5.0,79,0.00,BKN,SKC,0.05,WeatherDisplay:10.37,2013-02-26 01:53:00,
2013-02-25 19:58:00,29.3,23.6,29.84,NW,304,0.7,2.3,79,0.00,BKN,SKC,0.05,WeatherDisplay:10.37,2013-02-26 01:58:00,
2013-02-25 20:03:00,29.3,23.6,29.84,NW,304,1.5,3.5,79,0.00,BKN,SKC,0.05,WeatherDisplay:10.37,2013-02-26 02:03:00,
2013-02-25 20:08:00,29.2,23.5,29.84,NW,305,1.7,3.5,79,0.00,BKN,SKC,0.05,WeatherDisplay:10.37,2013-02-26 02:08:00,
2013-02-25 20:13:00,29.2,23.5,29.84,NW,305,1.6,3.5,79,0.00,BKN,SKC,0.05,WeatherDisplay:10.37,2013-02-26 02:13:00,
2013-02-25 20:18:00,29.1,23.4,29.84,NW,305,0.9,2.3,79,0.00,BKN,SKC,0.05,WeatherDisplay:10.37,2013-02-26 02:18:00,
2013-02-25 20:23:00,29.0,23.3,29.83,NW,305,0.7,3.5,79,0.00,BKN,SKC,0.05,WeatherDisplay:10.37,2013-02-26 02:23:00,
2013-02-25 20:28:00,29.0,23.3,29.83,NW,305,0.7,2.3,79,0.00,BKN,SKC,0.05,WeatherDisplay:10.37,2013-02-26 02:28:00,
2013-02-25 20:33:00,29.0,23.0,29.83,NW,305,1.6,3.5,78,0.00,BKN,SKC,0.05,WeatherDisplay:10.37,2013-02-26 02:33:00,
2013-02-25 20:38:00,28.9,23.2,29.83,NW,305,0.9,2.0,79,0.00,BKN,SKC,0.05,WeatherDisplay:10.37,2013-02-26 02:38:00,
2013-02-25 20:43:00,28.9,23.2,29.83,NW,305,0.9,2.3,79,0.00,BKN,SKC,0.05,WeatherDisplay:10.37,2013-02-26 02:43:00,
2013-02-25 20:48:00,28.9,23.2,29.83,NW,306,2.3,4.0,79,0.00,BKN,SKC,0.05,WeatherDisplay:10.37,2013-02-26 02:48:00,
2013-02-25 20:53:00,28.8,23.1,29.82,NW,306,0.9,3.5,79,0.00,BKN,SKC,0.05,WeatherDisplay:10.37,2013-02-26 02:53:00,
2013-02-25 20:59:00,28.8,23.1,29.82,NNW,329,0.9,2.3,79,0.00,BKN,SKC,0.05,WeatherDisplay:10.37,2013-02-26 02:59:00,
2013-02-25 21:04:00,28.7,23.0,29.82,NNW,330,1.9,3.5,79,0.00,BKN,SKC,0.05,WeatherDisplay:10.37,2013-02-26 03:04:00,
2013-02-25 21:09:00,28.5,22.8,29.81,NNW,330,1.7,3.5,79,0.00,BKN,SKC,0.05,WeatherDisplay:10.37,2013-02-26 03:09:00,
2013-02-25 21:14:00,28.3,22.6,29.81,NNW,330,1.0,3.5,79,0.00,OVC,SKC,0.05,WeatherDisplay:10.37,2013-02-26 03:14:00,
2013-02-25 21:19:00,28.2,22.5,29.81,NNW,330,0.8,2.0,79,0.00,OVC,SKC,0.05,WeatherDisplay:10.37,2013-02-26 03:19:00,
2013-02-25 21:24:00,28.1,22.4,29.81,NNW,330,2.0,4.0,79,0.00,BKN,SKC,0.05,WeatherDisplay:10.37,2013-02-26 03:24:00,
2013-02-25 21:29:00,28.0,22.3,29.81,NNW,330,1.4,3.5,79,0.00,BKN,SKC,0.05,WeatherDisplay:10.37,2013-02-26 03:29:00,
2013-02-25 21:34:00,27.8,22.1,29.81,NNW,330,0.2,1.1,79,0.00,BKN,SKC,0.05,WeatherDisplay:10.37,2013-02-26 03:34:00,
2013-02-25 21:39:00,27.7,22.0,29.81,NNW,330,0.3,2.3,79,0.00,BKN,SKC,0.05,WeatherDisplay:10.37,2013-02-26 03:39:00,
2013-02-25 21:44:00,27.6,21.9,29.80,NNW,330,1.7,3.0,79,0.00,BKN,SKC,0.05,WeatherDisplay:10.37,2013-02-26 03:44:00,
2013-02-25 21:50:00,27.6,21.9,29.80,NNW,330,1.3,3.5,79,0.00,BKN,SKC,0.05,WeatherDisplay:10.37,2013-02-26 03:50:00,
2013-02-25 21:55:00,27.7,22.0,29.80,NNW,330,0.9,3.5,79,0.00,BKN,SKC,0.05,WeatherDisplay:10.37,2013-02-26 03:55:00,
2013-02-25 22:00:00,27.8,22.1,29.80,NNW,330,1.9,3.5,79,0.00,BKN,SKC,0.05,WeatherDisplay:10.37,2013-02-26 04:00:00,
2013-02-25 22:05:00,27.8,22.1,29.81,NNW,331,0.3,1.1,79,0.00,OVC,SKC,0.05,WeatherDisplay:10.37,2013-02-26 04:05:00,
2013-02-25 22:10:00,27.8,22.1,29.81,NNW,331,1.3,3.5,79,0.00,OVC,SKC,0.05,WeatherDisplay:10.37,2013-02-26 04:10:00,
2013-02-25 22:15:00,27.9,22.2,29.81,NNW,331,1.9,3.5,79,0.00,OVC,SKC,0.05,WeatherDisplay:10.37,2013-02-26 04:15:00,
2013-02-25 22:20:00,27.9,22.2,29.81,NNW,331,2.4,3.0,79,0.00,OVC,SKC,0.05,WeatherDisplay:10.37,2013-02-26 04:20:00,
2013-02-25 22:25:00,27.9,22.2,29.81,NNW,336,2.3,4.0,79,0.00,OVC,SKC,0.05,WeatherDisplay:10.37,2013-02-26 04:25:00,
2013-02-25 22:30:00,27.9,22.2,29.81,NNW,336,0.9,2.3,79,0.00,OVC,SKC,0.05,WeatherDisplay:10.37,2013-02-26 04:30:00,
2013-02-25 22:35:00,27.8,22.1,29.81,NNW,336,1.3,2.3,79,0.00,OVC,SKC,0.05,WeatherDisplay:10.37,2013-02-26 04:35:00,
2013-02-25 22:40:00,27.6,21.9,29.81,NNW,336,1.5,3.5,79,0.00,OVC,SKC,0.05,WeatherDisplay:10.37,2013-02-26 04:40:00,
2013-02-25 22:45:00,27.5,21.8,29.81,NNW,336,0.8,2.3,79,0.00,BKN,SKC,0.05,WeatherDisplay:10.37,2013-02-26 04:45:00,
2013-02-25 22:50:00,27.2,21.5,29.81,NNW,336,0.8,3.0,79,0.00,BKN,SKC,0.05,WeatherDisplay:10.37,2013-02-26 04:50:00,
2013-02-25 22:55:00,26.9,21.3,29.81,NNW,336,1.9,3.0,79,0.00,BKN,SKC,0.05,WeatherDisplay:10.37,2013-02-26 04:55:00,
2013-02-25 23:00:00,26.7,21.1,29.81,NNW,336,1.4,2.3,79,0.00,BKN,SKC,0.05,WeatherDisplay:10.37,2013-02-26 05:00:00,
2013-02-25 23:01:00,26.7,21.4,29.81,NNW,336,1.3,2.3,80,0.00,BKN,SKC,0.05,WeatherDisplay:10.37,2013-02-26 05:01:00,
2013-02-25 23:02:00,26.6,21.0,29.81,NNW,336,0.8,2.3,79,0.00,OVC,SKC,0.05,WeatherDisplay:10.37,2013-02-26 05:02:00,
2013-02-25 23:06:00,26.5,21.2,29.81,NNW,336,1.3,3.5,80,0.00,OVC,SKC,0.05,WeatherDisplay:10.37,2013-02-26 05:06:00,
2013-02-25 23:11:00,26.3,21.0,29.80,NNW,336,0.7,2.3,80,0.00,OVC,SKC,0.05,WeatherDisplay:10.37,2013-02-26 05:11:00,
2013-02-25 23:16:00,26.0,20.7,29.80,NNW,336,1.2,2.3,80,0.00,OVC,SKC,0.05,WeatherDisplay:10.37,2013-02-26 05:16:00,
2013-02-25 23:21:00,25.8,20.5,29.80,NNW,336,1.2,3.5,80,0.00,OVC,SKC,0.05,WeatherDisplay:10.37,2013-02-26 05:21:00,
2013-02-25 23:26:00,25.6,20.3,29.80,NNW,336,0.1,1.0,80,0.00,SCT,SKC,0.05,WeatherDisplay:10.37,2013-02-26 05:26:00,
2013-02-25 23:31:00,25.3,19.4,29.81,NNW,336,0.0,0.0,78,0.00,SCT,SKC,0.05,WeatherDisplay:10.37,2013-02-26 05:31:00,
2013-02-25 23:36:00,24.4,18.2,29.81,NNW,336,0.8,2.3,77,0.00,SCT,SKC,0.05,WeatherDisplay:10.37,2013-02-26 05:36:00,
2013-02-25 23:41:00,23.4,17.6,29.81,NNW,336,1.3,2.3,78,0.00,SCT,SKC,0.05,WeatherDisplay:10.37,2013-02-26 05:41:00,
2013-02-25 23:46:00,22.8,17.0,29.81,NNW,336,0.0,1.1,78,0.00,CLR,SKC,0.05,WeatherDisplay:10.37,2013-02-26 05:46:00,
2013-02-25 23:51:00,22.3,16.8,29.81,NNW,336,0.1,1.1,79,0.00,CLR,SKC,0.05,WeatherDisplay:10.37,2013-02-26 05:51:00,
2013-02-25 23:56:00,21.9,16.7,29.81,NNW,336,0.7,2.0,80,0.00,CLR,SKC,0.05,WeatherDisplay:10.37,2013-02-26 05:56:00,